sat.trackr.live / text

‹ back to catalog

STARLINK-35856

NORAD 67013 · 2025-293L

PAYLOAD ACTIVE UNKNOWN

§ Identity

Operator
Country
US
Launch date
2025-12-10
Launch site
AFWTR
Launch vehicle
Mass (kg)
RCS (m²)

Purposes: comms

External: N2YO · Heavens-Above · Gunter

§ Orbital elements

Epoch: 2026-05-24T17:19:44.865984Z

Period
96.11 min
Inclination
70.0008°
Eccentricity
0.0003687
Mean motion
14.98332730 rev/d
Perigee alt
569.5 km
Apogee alt
574.6 km
Semi-major
6,950.2 km
B*
2.3030e-4
RAAN
262.8731°
Arg perigee
264.3301°
Mean anomaly
95.7438°
Rev number
2,627

§ Raw data

STARLINK-358561 67013U 25293L   26144.72204706  .00002656  00000+0  23030-3 0  99922 67013  70.0008 262.8731 0003687 264.3301  95.7438 14.98332730 26279

JSON: /api/v1/satellites/67013 · /tle

For live sub-satellite position, see the globe view (requires WebGL).

§ Visibility from observer

Set your observer location to see the next 7 days of passes ≥ 10°. The values pass through the URL so the page stays shareable.

No JS? Fill the form by hand. The geolocation button needs JavaScript.